Flag for Switzerland Weather past 2 weeks in Schaffhausen, Schaffhausen, Switzerland

Now
54 °F

Cool.


Feels Like: 54 °F
Forecast: 42 / 68 °F
Wind: 1 mph from Southeast

Location: Zurich-Kloten

Current Time: Apr 25, 2015 at 9:52:08 AM

Latest Report: Apr 25, 2015 at 9:00 AM


Visibility: N/A

Pressure: 29.92 "Hg

Humidity: 71%

Dew point: 45 °F

Location of SchaffhausenLocation

Historic Weather in Schaffhausen — Graph

°F

Schaffhausen temperature yesterday

Maximum temperature yesterday: 70 °F (at 5:00 PM)
Minimum temperature yesterday: 38 °F (at 6:00 AM)
Average temperature yesterday: 54 °F

Past Weeks' High & Low Weather Summary

 TemperatureHumidityPressure
High74 °F (Apr 15, 4:00 PM)96% (Apr 17, 8:00 PM)30.50 "Hg (Apr 17, 8:00 PM)
Low33 °F (Apr 19, 7:00 AM)20% (Apr 22, 7:00 PM)29.86 "Hg (Apr 24, 7:00 PM)
Average54 °F57%30.18 "Hg
* Reported Apr 10 8:00 AM — Apr 25 8:00 AM, Schaffhausen, Weather by CustomWeather, © 2015

Note: Actual official high and low records may vary slightly from our data, if they occured in-between our weather recording intervals... More about our weather records

Advertising

Schaffhausen weather history for previous 24 hours

 ConditionsComfort  
Time TempWeatherWind HumidityBarometerVisibility
8:00 AM
Sat, Apr 25
51 °FOvercast.5 mph78%29.93 "Hg12 mi
7:00 AM46 °FCool.3 mph89%29.94 "HgN/A
6:00 AM45 °FQuite cool.3 mph88%29.92 "HgN/A
5:00 AM42 °FPassing clouds.2 mph88%29.92 "Hg19 mi
4:00 AM40 °FQuite cool.2 mph89%29.93 "HgN/A
3:00 AM44 °FQuite cool.1 mph87%29.93 "HgN/A
2:00 AM46 °FPassing clouds.1 mph78%29.94 "Hg22 mi
1:00 AM47 °FCool.2 mph77%29.94 "HgN/A
12:00 AM47 °FCool.No wind75%29.94 "HgN/A
11:00 PM
Fri, Apr 24
51 °FPassing clouds.1 mph69%29.93 "Hg22 mi
10:00 PM52 °FCool.2 mph68%29.93 "HgN/A
9:00 PM58 °FRefreshingly cool.3 mph48%29.90 "HgN/A
8:00 PM65 °FPartly sunny.3 mph36%29.87 "Hg19 mi
7:00 PM66 °FMild.6 mph35%29.86 "HgN/A
6:00 PM69 °FMild.6 mph26%29.87 "HgN/A
5:00 PM70 °FPassing clouds.6 mph27%29.87 "Hg16 mi
4:00 PM68 °FMild.5 mph27%29.90 "HgN/A
3:00 PM67 °FMild.9 mph31%29.92 "HgN/A
2:00 PM67 °FPassing clouds.6 mph30%29.93 "Hg16 mi
1:00 PM64 °FMild.3 mph40%29.96 "HgN/A
12:00 PM62 °FRefreshingly cool.2 mph48%29.99 "HgN/A
11:00 AM56 °FSunny.2 mph56%30.02 "Hg9 mi
10:00 AM51 °FCool.2 mph60%30.04 "HgN/A
9:00 AM47 °FCool.1 mph72%30.05 "HgN/A
Weather by CustomWeather, © 2015

See weather overviewHow to use our weather pages